Wind_Speed
58 59 58 56 63 73 75 75 73 74 73 73 70 67 64 60 56 56 54 53 52 52 56 58 57 57 59 62 63 58 57 54 53 53 53 54 56 60 64 66 67 69 73
57 59 57 51 52 64 75 73 72 71 71 70 68 65 62 58 56 58 56 51 51 52 55 56 55 56 59 59 56 54 52 52 52 55 57 59 62 66 69 71 73 76 79
56 57 58 54 52 54 65 72 71 68 68 68 67 64 59 57 56 58 55 52 50 53 53 52 52 53 55 55 51 50 50 52 54 58 60 64 67 71 77 80 82 83 86
62 60 57 56 50 52 57 65 71 67 64 64 65 62 57 54 56 56 53 52 52 52 50 49 49 52 52 50 50 50 53 54 57 61 65 68 70 74 78 87 90 91 94
68 64 61 58 50 54 51 58 64 66 63 61 61 60 55 52 54 52 52 51 52 51 49 50 51 51 48 49 51 53 54 58 62 66 70 73 76 79 79 80 90 95 100
72 66 63 57 49 56 53 54 59 63 63 59 59 58 54 51 52 51 50 49 48 49 51 50 50 50 49 51 54 56 60 64 67 71 75 78 82 85 84 84 87 92 99
73 71 66 60 49 56 59 54 55 61 60 56 57 57 52 50 52 49 49 50 49 51 51 51 52 49 50 54 57 61 65 68 72 76 79 83 86 88 90 92 92 92 99
74 75 73 64 55 56 61 55 52 58 59 54 54 54 50 50 51 49 50 49 50 52 52 52 50 51 54 58 62 66 70 73 78 81 85 88 90 94 96 98 99 100 105
81 78 79 69 55 55 63 56 52 56 56 53 52 52 49 49 50 49 49 50 51 51 52 52 52 55 59 62 66 71 74 79 82 86 90 93 96 99 102 104 108 110 108
90 79 80 69 61 56 61 58 54 55 52 53 51 51 48 49 49 49 49 49 48 50 53 54 56 60 63 67 71 75 79 83 87 92 97 99 101 104 106 109 113 118 121
91 85 80 68 62 59 57 58 55 55 53 54 50 49 49 49 48 48 48 48 50 53 55 58 61 63 67 72 75 79 84 89 94 98 100 101 103 107 110 115 120 117 117
77 88 82 71 62 56 61 55 55 54 55 52 49 49 49 48 48 47 48 50 53 56 59 62 65 68 72 77 81 85 90 94 98 99 101 103 107 112 116 120 112 116 108
57 74 75 68 60 56 59 53 55 55 55 50 47 48 47 47 47 47 49 53 56 59 63 65 68 73 77 81 85 90 95 98 99 101 104 109 113 117 117 112 109 103 108
47 60 59 57 53 54 55 54 57 54 51 47 46 46 45 47 48 49 51 55 59 63 66 69 73 78 82 86 90 95 98 100 103 106 110 114 117 112 113 103 101 108 114
45 48 50 51 50 54 53 56 53 51 48 44 45 45 45 47 49 51 54 57 61 65 69 73 79 82 86 90 94 97 101 103 107 112 116 114 111 108 98 101 109 116 120
43 46 47 45 50 51 53 52 51 45 42 43 44 44 45 47 49 52 56 60 64 68 72 76 81 85 89 93 96 98 103 107 112 112 109 111 99 94 102 111 118 124 127
43 45 45 46 44 50 49 46 43 42 41 41 42 42 44 47 50 54 57 62 66 70 74 79 83 87 90 94 98 102 108 111 108 109 101 93 95 103 110 117 124 130 132
29 31 35 42 46 45 44 43 41 38 37 38 39 40 44 48 51 56 60 64 68 73 77 81 85 89 93 97 103 107 106 106 104 95 92 95 102 112 117 121 127 132 124
31 37 40 41 42 42 40 37 34 33 35 36 38 42 46 51 56 60 64 68 72 76 80 84 88 93 97 104 105 100 103 97 90 93 97 104 112 118 121 125 127 120 109
35 37 39 38 37 35 32 31 31 34 36 39 42 46 51 56 59 63 67 71 75 80 84 88 92 97 102 99 101 99 90 86 90 96 104 112 118 121 126 125 115 106 101
34 34 33 32 30 29 30 33 34 36 38 43 46 50 54 58 62 66 70 75 79 84 89 94 97 96 97 98 92 86 85 89 94 103 111 118 122 125 123 113 105 99 90
29 28 26 25 27 29 31 33 35 38 41 45 50 53 57 62 66 71 76 80 84 89 93 95 94 96 91 83 81 84 89 95 102 111 117 121 124 118 109 103 96 88 81
24 23 23 24 26 28 31 34 37 41 44 48 52 57 61 67 72 76 80 85 90 91 89 91 92 87 82 80 83 88 94 102 111 119 122 124 116 106 100 92 84 79 75
22 23 24 26 28 30 33 36 39 43 49 52 57 62 67 72 76 81 84 87 87 88 89 86 81 77 78 82 87 93 99 107 115 120 122 112 103 97 89 81 77 73 67
24 25 27 29 32 35 37 41 45 49 54 58 63 68 72 77 80 81 82 84 85 86 82 77 75 76 81 85 91 98 105 111 115 116 107 99 95 84 77 72 68 64 59
28 30 32 34 36 39 43 47 51 55 59 64 69 72 73 74 75 79 82 83 83 79 73 72 75 80 84 89 95 104 110 114 113 103 96 91 81 75 73 68 62 56 51
Wind_Direction
257 256 254 253 249 246 247 250 249 247 247 248 249 252 258 264 268 269 269 274 276 273 271 269 270 271 274 274 274 276 279 279 281 285 287 288 290 290 290 291 290 290 291
258 257 257 255 251 249 247 245 248 249 247 246 247 250 254 260 265 268 272 276 272 275 272 270 270 271 271 272 273 276 278 279 282 285 287 288 290 290 290 290 289 289 291
254 253 253 253 254 250 247 245 244 247 248 247 246 247 250 256 261 265 270 274 273 273 272 270 269 268 270 272 273 276 277 280 283 285 286 287 289 291 291 291 291 292 292
248 251 251 252 254 252 246 244 241 242 245 246 245 245 246 252 258 262 266 272 271 272 269 269 268 269 272 272 275 276 278 282 284 285 286 287 288 289 290 293 293 295 295
251 252 253 252 252 257 252 243 240 238 241 243 244 244 245 250 255 259 264 268 269 269 269 268 270 270 270 274 274 277 281 283 284 285 286 287 289 291 290 290 292 294 296
251 252 254 256 259 261 257 243 238 234 238 240 241 242 244 246 253 258 263 265 265 265 267 268 269 269 272 274 278 280 281 283 285 287 288 290 292 293 292 290 291 292 295
246 246 248 251 251 257 258 245 237 230 234 237 238 240 241 245 250 256 258 260 262 266 269 269 269 271 275 277 280 281 283 285 288 290 291 292 292 293 293 293 293 292 293
241 245 246 246 250 250 252 248 233 228 231 233 236 240 240 245 250 254 256 257 262 266 268 268 270 274 277 279 281 283 285 288 291 293 295 294 294 294 294 295 294 295 297
241 242 244 242 243 243 244 245 227 223 227 229 232 238 239 245 249 252 255 258 263 266 266 269 272 275 279 281 283 286 289 291 295 296 296 296 295 295 296 296 297 297 297
242 237 242 239 240 240 239 242 224 218 222 226 229 235 238 245 249 253 256 262 264 264 268 270 273 277 280 283 287 290 293 295 295 296 297 297 297 297 298 299 300 300 300
238 237 237 236 239 236 230 237 220 215 217 223 226 233 239 244 249 254 261 263 263 266 269 272 276 280 283 287 290 292 294 295 297 297 297 297 298 299 300 301 301 301 301
229 229 230 231 235 228 225 230 215 213 216 221 226 233 239 245 250 256 263 262 262 266 271 275 279 282 286 289 291 293 295 296 297 297 298 300 300 301 302 303 302 304 301
217 217 219 226 228 219 224 223 210 211 215 219 226 234 241 248 254 260 264 263 264 269 273 278 282 285 287 290 292 294 295 297 298 300 301 301 302 303 303 303 303 302 301
196 200 207 215 213 211 218 210 207 210 215 220 228 237 244 251 257 262 265 266 268 272 276 281 284 287 289 291 293 295 296 298 300 301 301 302 303 303 304 304 302 300 300
178 188 196 204 205 209 209 203 205 209 216 222 232 240 247 255 261 266 269 271 274 277 280 283 286 289 290 292 293 296 298 300 301 302 303 303 304 305 305 302 300 302 305
176 185 195 200 206 207 197 198 204 211 219 229 238 245 253 259 266 271 274 276 279 282 283 285 287 289 291 293 296 298 300 301 302 303 303 304 304 305 304 304 304 306 308
181 187 193 199 202 190 192 197 205 215 225 235 244 251 259 267 272 275 278 279 281 283 285 287 289 292 294 296 299 300 302 304 303 303 304 305 305 305 304 305 308 308 310
180 182 184 180 180 185 191 201 211 222 233 242 252 260 266 272 275 277 279 282 284 286 288 291 294 295 297 299 301 303 304 303 304 304 305 306 306 305 306 308 309 309 311
165 165 168 173 179 188 197 207 218 230 240 250 259 265 270 274 276 279 282 286 288 291 293 295 297 298 300 302 303 304 303 304 305 306 308 308 306 306 308 311 311 311 312
166 168 171 179 187 196 206 216 228 238 248 258 265 269 272 276 281 284 287 291 293 294 296 297 299 302 303 303 303 304 305 306 308 308 307 307 307 309 312 313 312 313 312
170 173 180 190 199 208 218 229 238 248 257 263 269 273 277 282 286 289 291 293 295 296 298 301 302 303 302 303 304 305 307 309 309 308 307 307 310 314 313 313 313 313 312
178 186 194 203 213 222 231 240 250 257 263 269 274 280 284 287 289 291 293 295 297 299 300 302 303 303 305 305 306 308 309 309 310 308 308 311 314 313 313 313 313 312 312
194 202 211 220 228 237 245 252 258 265 271 276 279 283 285 288 292 293 295 297 298 300 302 303 304 305 307 309 310 309 311 311 310 309 311 315 314 314 314 313 313 313 313
210 219 226 234 242 249 256 262 268 272 275 280 283 286 289 292 294 295 296 297 299 302 303 304 305 306 308 309 311 312 311 310 309 311 314 315 313 314 314 314 315 315 314
224 232 239 245 252 257 263 268 273 277 281 285 288 290 292 293 294 295 296 299 303 304 305 305 306 307 309 311 311 310 308 308 311 314 314 313 314 314 314 315 315 314 314
235 242 248 254 261 266 270 275 279 283 286 288 289 291 292 293 294 297 300 303 305 305 305 305 306 309 310 309 310 309 310 313 315 316 314 315 315 316 316 317 317 316 314
Height
10624 10627 10632 10636 10637 10634 10637 10644 10654 10661 10670 10676 10683 10689 10694 10699 10701 10702 10702 10701 10701 10700 10698 10697 10696 10695 10695 10693 10691 10689 10687 10683 10679 10676 10675 10670 10668 10663 10658 10654 10650 10645 10639
10611 10612 10615 10623 10622 10622 10623 10632 10640 10648 10656 10663 10670 10677 10683 10688 10689 10688 10690 10691 10689 10688 10687 10685 10685 10683 10681 10681 10679 10677 10675 10671 10667 10664 10660 10657 10654 10649 10643 10638 10633 10628 10621
10594 10594 10597 10604 10609 10609 10610 10617 10626 10635 10642 10650 10657 10664 10672 10677 10678 10678 10679 10680 10678 10677 10676 10675 10673 10671 10670 10669 10667 10665 10663 10660 10656 10652 10649 10645 10638 10634 10623 10617 10613 10609 10600
10575 10576 10581 10587 10593 10593 10599 10603 10610 10620 10629 10637 10644 10652 10660 10666 10665 10667 10668 10667 10666 10667 10665 10663 10661 10660 10659 10657 10655 10653 10650 10648 10645 10640 10635 10631 10628 10624 10618 10597 10587 10583 10573
10561 10565 10568 10573 10579 10580 10587 10592 10597 10607 10615 10624 10632 10639 10649 10654 10654 10655 10656 10657 10656 10655 10653 10651 10650 10648 10647 10645 10643 10641 10638 10635 10631 10626 10621 10617 10612 10608 10605 10601 10579 10564 10552
10543 10553 10557 10562 10572 10570 10575 10580 10584 10593 10603 10612 10620 10629 10636 10642 10643 10645 10645 10646 10645 10643 10642 10640 10638 10637 10635 10634 10631 10628 10625 10621 10616 10611 10605 10599 10593 10586 10583 10581 10573 10564 10543
10526 10532 10541 10549 10558 10558 10561 10568 10574 10583 10592 10601 10609 10619 10626 10631 10634 10635 10635 10634 10633 10632 10630 10629 10627 10626 10624 10622 10619 10615 10612 10607 10601 10595 10587 10581 10573 10564 10556 10552 10549 10545 10530
10512 10515 10520 10533 10546 10546 10548 10558 10565 10573 10582 10590 10601 10610 10616 10620 10622 10623 10623 10622 10621 10620 10619 10617 10616 10614 10612 10609 10606 10602 10596 10591 10584 10576 10567 10558 10551 10540 10532 10524 10519 10516 10503
10484 10497 10503 10520 10531 10535 10538 10547 10554 10563 10573 10582 10592 10600 10605 10609 10611 10612 10612 10611 10610 10610 10608 10607 10605 10602 10599 10596 10592 10586 10580 10573 10565 10556 10546 10536 10526 10515 10506 10496 10486 10478 10479
10454 10482 10489 10509 10518 10522 10530 10540 10546 10554 10566 10574 10582 10589 10595 10598 10600 10601 10601 10601 10600 10599 10598 10595 10593 10590 10586 10581 10576 10569 10561 10553 10544 10534 10523 10513 10502 10490 10479 10468 10454 10439 10429
10435 10457 10474 10496 10505 10509 10522 10532 10539 10547 10556 10565 10573 10581 10586 10588 10590 10591 10590 10590 10589 10588 10586 10584 10580 10577 10572 10566 10559 10551 10543 10533 10522 10513 10501 10490 10478 10464 10452 10438 10421 10405 10388
10411 10431 10459 10481 10491 10502 10511 10524 10532 10540 10549 10557 10565 10572 10576 10579 10580 10580 10580 10579 10578 10577 10574 10571 10568 10563 10558 10551 10542 10533 10524 10513 10502 10490 10477 10464 10451 10437 10423 10407 10391 10376 10355
10394 10419 10450 10471 10483 10494 10504 10516 10525 10533 10542 10550 10558 10563 10567 10569 10570 10570 10570 10569 10567 10565 10562 10558 10553 10548 10541 10533 10525 10515 10503 10491 10479 10466 10453 10439 10425 10410 10394 10379 10363 10347 10330
10391 10418 10444 10463 10476 10486 10498 10509 10517 10527 10537 10544 10550 10555 10558 10560 10560 10560 10560 10558 10556 10553 10549 10544 10538 10531 10523 10515 10506 10495 10482 10469 10455 10441 10428 10414 10399 10383 10369 10353 10337 10319 10304
10404 10423 10441 10456 10469 10481 10492 10502 10514 10524 10532 10538 10544 10548 10549 10551 10551 10551 10549 10547 10544 10540 10535 10529 10522 10514 10506 10496 10486 10474 10459 10445 10430 10415 10400 10385 10370 10356 10342 10327 10309 10290 10276
10411 10426 10439 10452 10465 10477 10489 10500 10511 10522 10529 10534 10537 10540 10542 10542 10542 10540 10538 10535 10531 10526 10520 10514 10506 10498 10488 10477 10464 10452 10437 10421 10407 10391 10375 10362 10346 10334 10317 10297 10277 10255 10243
10415 10427 10439 10452 10465 10478 10490 10501 10511 10518 10523 10528 10531 10533 10533 10533 10532 10529 10526 10522 10517 10512 10505 10497 10488 10479 10468 10456 10442 10428 10413 10397 10381 10366 10352 10340 10326 10309 10293 10274 10251 10225 10207
10424 10433 10443 10455 10470 10482 10492 10499 10506 10513 10518 10522 10524 10525 10525 10523 10521 10518 10513 10508 10503 10496 10488 10480 10469 10458 10447 10433 10419 10405 10389 10374 10358 10342 10331 10319 10303 10280 10265 10251 10227 10198 10180
10432 10441 10451 10463 10473 10482 10490 10497 10504 10510 10513 10515 10516 10516 10515 10512 10508 10504 10500 10494 10487 10479 10470 10461 10450 10437 10424 10410 10395 10382 10368 10352 10336 10321 10305 10293 10275 10256 10241 10223 10198 10169 10152
10441 10449 10457 10466 10474 10482 10490 10496 10501 10505 10506 10507 10507 10505 10503 10500 10496 10492 10485 10478 10470 10461 10451 10441 10429 10416 10401 10387 10374 10359 10345 10334 10320 10302 10284 10265 10246 10230 10211 10189 10167 10147 10129
10447 10454 10462 10469 10476 10483 10488 10493 10496 10498 10499 10498 10496 10494 10492 10488 10483 10476 10469 10461 10452 10442 10430 10419 10407 10394 10381 10367 10352 10337 10326 10313 10299 10280 10261 10239 10221 10202 10179 10157 10139 10123 10107
10452 10458 10465 10471 10476 10481 10485 10488 10490 10490 10489 10488 10486 10483 10479 10474 10467 10460 10452 10443 10433 10423 10410 10396 10382 10371 10358 10347 10333 10318 10305 10290 10274 10252 10232 10215 10196 10172 10152 10134 10117 10101 10087
10455 10460 10465 10470 10474 10477 10479 10480 10481 10481 10479 10477 10474 10470 10465 10458 10451 10443 10434 10425 10413 10402 10391 10378 10364 10349 10337 10326 10313 10299 10284 10267 10245 10222 10204 10188 10165 10145 10129 10113 10096 10081 10067
10455 10460 10463 10467 10469 10470 10472 10472 10472 10470 10468 10465 10461 10455 10449 10441 10433 10424 10415 10404 10394 10385 10372 10359 10347 10333 10321 10310 10295 10280 10264 10246 10222 10203 10183 10163 10143 10127 10110 10093 10077 10063 10051
10453 10456 10458 10460 10462 10463 10464 10463 10461 10458 10455 10451 10445 10438 10432 10424 10415 10405 10395 10386 10377 10365 10352 10340 10328 10318 10306 10293 10279 10262 10244 10226 10206 10184 10161 10141 10124 10108 10093 10079 10065 10051 10039
10448 10450 10452 10454 10455 10454 10453 10451 10449 10446 10441 10435 10429 10422 10414 10406 10397 10387 10378 10368 10356 10346 10335 10324 10313 10300 10289 10277 10259 10237 10216 10199 10178 10156 10138 10121 10104 10088 10072 10059 10048 10038 10027